CW9181 Weather Reports


time (UTC)temp
C
wind
direction
speed
KPH
gust
KPH
rain 1hr
cm
rain 24hr
cm
rain mn
cm
humidity
%
barometer
mb
20260504035839 16 252 4.8 16.1 0.00 0.00 0.00 66 1012.7
20260504034818 16 214 9.7 19.3 0.00 0.00 0.00 65 1012.6
20260504033819 16 203 6.4 14.5 0.00 0.00 0.00 65 1012.6
20260504032814 16 172 6.4 20.9 0.00 0.00 0.00 64 1012.5
20260504031815 17 208 3.2 17.7 0.00 0.00 0.00 64 1012.4
20260504030816 17 201 4.8 14.5 0.00 0.00 0.00 63 1012.3
20260504025811 17 224 6.4 16.1 0.00 0.00 0.00 62 1012.2
20260504024809 17 159 4.8 16.1 0.00 0.00 0.00 60 1011.9
20260504023808 18 182 8.0 17.7 0.00 0.00 0.00 59 1011.9
20260504022824 18 193 6.4 17.7 0.00 0.00 0.00 59 1011.8
20260504021822 18 208 6.4 17.7 0.00 0.00 0.00 58 1011.9
20260504020804 18 212 6.4 16.1 0.00 0.00 0.00 57 1011.6
20260504015816 19 192 3.2 12.9 0.00 0.00 0.00 56 1011.7
20260504014815 20 228 3.2 19.3 0.00 0.00 0.00 56 1011.8
20260504013836 20 260 8.0 20.9 0.00 0.00 0.00 55 1011.6
20260504012808 20 196 8.0 24.1 0.00 0.00 0.00 54 1011.4
20260504011828 20 260 9.7 16.1 0.00 0.00 0.00 53 1011.3
20260504010806 21 260 3.2 16.1 0.00 0.00 0.00 52 1011.4
20260504005821 21 228 6.4 17.7 0.00 0.00 0.00 53 1011.4
20260504004803 20 238 4.8 14.5 0.00 0.00 0.00 53 1011.3
20260504003822 20 238 9.7 19.3 0.00 0.00 0.00 53 1011.4
20260504002838 20 238 8.0 17.7 0.00 0.00 0.00 53 1011.3
20260504001817 20 239 6.4 17.7 0.00 0.00 0.00 53 1011.3
20260504000814 21 162 6.4 20.9 0.00 0.00 0.00 54 1011.3
20260503235811 21 203 6.4 14.5 0.00 0.00 0.00 54 1011.4
20260503234804 20 193 1.6 9.7 0.00 0.00 0.00 55 1011.5
20260503233804 20 137 4.8 12.9 0.00 0.00 0.00 57 1011.7
20260503232820 20 167 4.8 8.0 0.00 0.00 0.00 56 1012.0
20260503231819 20 239 3.2 14.5 0.00 0.00 0.00 58 1012.0
20260503230820 20 224 3.2 11.3 0.00 0.00 0.00 58 1012.0
20260503225814 19 89 6.4 11.3 0.00 0.00 0.00 58 1012.1
20260503224817 20 229 4.8 16.1 0.00 0.00 0.00 58 1011.9
20260503223817 19 169 4.8 11.3 0.00 0.00 0.00 60 1012.0
20260503222815 18 123 4.8 17.7 0.00 0.00 0.00 59 1012.0
20260503221816 19 189 9.7 17.7 0.00 0.00 0.00 59 1012.0
20260503220813 19 187 6.4 17.7 0.00 0.00 0.00 59 1011.9
20260503215812 19 166 9.7 19.3 0.00 0.00 0.00 59 1011.9
20260503214816 19 197 6.4 17.7 0.00 0.00 0.00 60 1011.9
20260503213817 19 149 4.8 16.1 0.00 0.00 0.00 59 1011.9
20260503212811 18 185 6.4 17.7 0.00 0.00 0.00 60 1012.1
20260503211810 18 163 9.7 19.3 0.00 0.00 0.00 58 1012.0
20260503210810 18 245 8.0 19.3 0.00 0.00 0.00 60 1012.0
20260503205808 19 170 6.4 17.7 0.00 0.00 0.00 60 1012.1
20260503204828 19 231 6.4 25.7 0.00 0.00 0.00 59 1012.1
20260503203821 19 168 11.3 20.9 0.00 0.00 0.00 57 1012.2
20260503202821 18 243 8.0 19.3 0.00 0.00 0.00 59 1012.2
20260503201804 18 265 9.7 17.7 0.00 0.00 0.00 59 1012.4
20260503200806 18 220 6.4 17.7 0.00 0.00 0.00 61 1012.4
20260503195821 18 199 4.8 19.3 0.00 0.00 0.00 61 1012.6
20260503194804 18 224 4.8 14.5 0.00 0.00 0.00 62 1012.6
20260503193804 18 127 6.4 16.1 0.00 0.00 0.00 61 1012.7
20260503192820 18 132 12.9 19.3 0.00 0.00 0.00 60 1012.8
20260503191839 18 303 4.8 17.7 0.00 0.00 0.00 61 1012.7
20260503190821 18 202 12.9 24.1 0.00 0.00 0.00 60 1012.8
20260503185811 18 132 6.4 24.1 0.00 0.00 0.00 62 1012.9
20260503184812 18 260 9.7 19.3 0.00 0.00 0.00 62 1012.9
20260503183810 18 247 9.7 17.7 0.00 0.00 0.00 63 1013.0
20260503182806 17 153 11.3 20.9 0.00 0.00 0.00 63 1012.9
20260503181821 17 164 11.3 19.3 0.00 0.00 0.00 67 1012.8
20260503180821 16 205 6.4 19.3 0.00 0.00 0.00 68 1012.7
20260503175839 16 178 11.3 22.5 0.00 0.00 0.00 67 1012.8
20260503174820 16 213 8.0 22.5 0.00 0.00 0.00 70 1012.9
20260503173802 16 171 8.0 24.1 0.00 0.00 0.00 71 1012.9
20260503172842 16 185 16.1 24.1 0.00 0.00 0.00 69 1012.9
20260503171816 16 203 11.3 19.3 0.00 0.00 0.00 71 1012.7
20260503170819 16 177 8.0 16.1 0.00 0.00 0.00 72 1012.6
20260503150807 13 135 6.4 19.3 0.00 0.00 0.00 82 1011.7
20260503130839 11 114 8.0 19.3 0.00 0.00 0.00 85 1010.2
20260503110808 12 126 6.4 12.9 0.00 0.00 0.00 85 1010.1
20260503080812 13 155 3.2 6.4 0.00 0.00 0.00 81 1010.6
20260503072819 13 117 3.2 11.3 0.00 0.00 0.00 80 1010.9
20260503071803 13 188 3.2 11.3 0.00 0.00 0.00 79 1010.9
20260503070807 13 192 3.2 9.7 0.00 0.00 0.00 78 1010.9
20260503054807 15 159 3.2 11.3 0.00 0.00 0.00 73 1011.1
20260503053805 15 178 3.2 6.4 0.00 0.00 0.00 72 1011.0
20260503052822 15 168 1.6 11.3 0.00 0.00 0.00 72 1011.0
20260503051844 15 228 3.2 11.3 0.00 0.00 0.00 71 1011.0
20260503050807 15 150 4.8 9.7 0.00 0.00 0.00 72 1011.0
20260503045822 16 193 1.6 4.8 0.00 0.00 0.00 70 1010.9
20260503044821 16 197 1.6 9.7 0.00 0.00 0.00 70 1011.0
20260503043818 16 193 4.8 8.0 0.00 0.00 0.00 70 1010.8
20260503042814 16 161 3.2 11.3 0.00 0.00 0.00 70 1010.8
20260503041815 16 199 4.8 11.3 0.00 0.00 0.00 69 1010.6
20260503040815 16 184 8.0 14.5 0.00 0.00 0.00 69 1010.6